Regional Weather Roundup
Issued by NWS

Home | Current Version | Previous Version | Text Only | Print | Product List | Glossary Off
Versions: 1 2 3 4 5 6 7 8 9 10 11 12 13 14 15 16 17 18 19 20 21 22 23 24 25 26 27 28 29 30 31 32 33 34 35 36 37 38 39 40 41 42 43 44 45 46 47 48 49 50

000
ASUS43 KMPX 302301
RWRMN
WEATHER ROUNDUP FOR MINNESOTA
NATIONAL WEATHER SERVICE TWIN CITIES/CHANHASSEN MN
600 PM CDT SAT AUG 30 2014


NOTE: "FAIR" INDICATES FEW OR NO CLOUDS BELOW 12,000 FEET WITH NO
SIGNIFICANT WEATHER AND/OR OBSTRUCTIONS TO VISIBILITY. N/A MEANS
CURRENT SKY AND/OR WEATHER CONDITIONS ARE NOT AVAILABLE.

MNZ060>063-068>070-310000-
   Twin Cities Metro

CITY           SKY/WX    TMP DP  RH WIND       PRES   REMARKS
TWIN CITIES    PTSUNNY   73  61  65 E9        29.85S
ST PAUL        SUNNY     72  60  66 NE6       29.85F
CRYSTAL        PTSUNNY   74  60  61 NE7       29.83F
BLAINE         MOSUNNY   75  63  64 NE7       29.85F
LAKEVILLE      PTSUNNY   72  64  78 E7        29.85R
EDEN PRAIRIE   PTSUNNY   74  64  71 E7        29.83S
SOUTH ST PAUL  SUNNY     74  60  62 E7        29.85S
LAKE ELMO      PTSUNNY   72  63  73 E6        29.87S
$$
MNZ001>005-007-008-013>017-022>024-027-028-310000-
   Northwest Minnesota

CITY           SKY/WX    TMP DP  RH WIND       PRES   REMARKS
BEMIDJI        CLOUDY    64  57  78 E7        29.87F
HALLOCK        SUNNY     72  48  43 SE8       29.81F
ROSEAU         SUNNY     70  55  60 E12       29.85F
WARROAD        SUNNY     66  57  72 NE8       29.87F
THIEF RVR FALL MOSUNNY   70  54  56 SE10      29.84S
CROOKSTON      SUNNY     73  54  49 SE8       29.83F
FOSSTON        SUNNY     72  57  60 SE9       29.86S
DETROIT LAKES  CLOUDY    64  59  82 E5        29.87F
MOORHEAD       CLOUDY    70  63  78 SE3       29.84F
PARK RAPIDS    CLOUDY    63  59  87 CALM      29.88S
MAHNOMEN       CLOUDY    64  58  81 SE5       29.86F
$$
MNZ006-009>011-018-025>026-310000-
   North Central Minnesota

CITY           SKY/WX    TMP DP  RH WIND       PRES   REMARKS
BAUDETTE       SUNNY     69  54  58 N6        29.86F
FLAG ISLAND    SUNNY     66  48  52 CALM      29.86F
INTL FALLS     SUNNY     70  51  51 NE5       29.88S
WASKISH        MOSUNNY   70  57  64 CALM      29.86F
BIG FORK       CLOUDY    64  57  77 CALM      29.90S
LONGVILLE      CLOUDY    64  61  88 CALM      29.87S
GRAND RAPIDS   CLOUDY    64  57  77 CALM      29.89S
CRANE LAKE     PTSUNNY   66  54  63 S3        29.91S
ORR            CLOUDY    66  54  63 CALM      29.88S
COOK           CLOUDY    63  57  82 CALM      29.90F
WALKER         CLOUDY    63  59  86 CALM      29.88S
$$
MNZ012-019>021-037-310000-
   Northeast Minnesota

CITY           SKY/WX    TMP DP  RH WIND       PRES   REMARKS
DULUTH         PTSUNNY   63  58  83 E9        29.89R
ELY            CLOUDY    63  55  77 CALM      29.90S
HIBBING        CLOUDY    66  58  75 NE6       29.89S
EVELETH        CLOUDY    63  55  77 CALM      29.91R
DULUTH HARBOR  PTSUNNY   64  61  88 NE10      29.88S
TWO HARBORS    CLOUDY    61  55  82 E3        29.88S HAZE
SILVER BAY     LGT RAIN  57  57 100 SE3       29.88S
GRAND MARAIS     N/A     62  60  93 W3        29.88S
G MARAIS ARPRT CLOUDY    61  54  77 NE5       29.92R
$$
MNZ029>031-032-039>041-046>048-054>057-064-310000-
   West Central Minnesota

CITY           SKY/WX    TMP DP  RH WIND       PRES   REMARKS
FERGUS FALLS   CLOUDY    66  57  72 S3        29.85S
WHEATON        MOSUNNY   64  57  77 E5        29.86F
MORRIS         SUNNY     66  61  82 CALM      29.85F
ALEXANDRIA     CLOUDY    68  62  81 W5        29.87F
ELBOW LAKE     CLOUDY    65  60  85 S5        29.85F
WADENA         CLOUDY    64  61  88 CALM      29.87S
GLENWOOD       SUNNY     70  63  78 W6        29.87S
APPLETON       CLOUDY    68  59  73 CALM      29.85F
BENSON         CLOUDY    66  63  88 NW5       29.86S
ORTONVILLE     SUNNY     70  59  68 E3        29.84F
MADISON        SUNNY     72  63  73 E3        29.85F
WILLMAR        FAIR      70  63  78 SW7       29.87S
$$
MNZ033>034-036-042>043-049>051-058-059-310000-
   Central Minnesota

CITY           SKY/WX    TMP DP  RH WIND       PRES   REMARKS
ST CLOUD       CLOUDY    75  65  70 SE3       29.85S
SAUK CENTRE    MOCLDY    70  63  78 CALM      29.86S
PAYNESVILLE    HVY RAIN  68  63  84 CALM      29.85F
AITKIN         CLOUDY    72  63  73 CALM      29.85S
PINE RIVER     CLOUDY    64  61  88 CALM      29.90F
BRAINERD       PTSUNNY   69  62  78 N7        29.86F
STAPLES        CLOUDY    64  61  88 CALM      29.87S
LONG PRAIRIE   FAIR      68  61  77 NE3       29.87S
LITTLE FALLS   PTSUNNY   68  61  77 CALM      29.86S
LITCHFIELD     PTSUNNY   73  66  78 W6        29.86S
BUFFALO        CLOUDY    68  65  88 E6        29.86F
MAPLE LAKE     CLOUDY    72  67  87 E3        29.86S
$$
MNZ037-044-045-052-053-310000-
   East Central Minnesota

CITY           SKY/WX    TMP DP  RH WIND       PRES   REMARKS
PRINCETON      PTSUNNY   73  61  64 E3        29.85F
MORA           MOSUNNY   70  61  73 SE3       29.87S
CAMBRIDGE      MOSUNNY   75  61  60 CALM      29.84S
RUSH CITY      MOSUNNY   72  62  70 E5        29.86S
MOOSE LAKE     PTSUNNY   68  61  77 CALM      29.85R
HINCKLEY       FAIR      72  63  73 S5        29.85F
CLOQUET        CLOUDY    66  61  82 E5        29.88S
MCGREGOR       CLOUDY    70  61  73 N6        29.87S
$$
MNZ071>073-080-081-089-090-097-098-310000-
   Southwest Minnesota

CITY           SKY/WX    TMP DP  RH WIND       PRES   REMARKS
MONTEVIDEO     CLOUDY    68  68 100 CALM      29.87F
GRANITE FALLS  MOSUNNY   68  62  80 CALM      29.87F
CANBY          PTSUNNY   71  63  74 SE5       29.86F
MARSHALL       PTSUNNY   70  61  73 CALM      29.85F
REDWOOD FALLS  CLOUDY    70  62  76 NW5       29.86F
OLIVIA         CLOUDY    70  63  78 SW8       29.86S
PIPESTONE      MOSUNNY   72  61  68 SW3       29.87S
WINDOM         CLOUDY    73  63  68 CALM      29.87S
WORTHINGTON    MOSUNNY   73  61  64 W5        29.89S
JACKSON        SUNNY     75  59  57 CALM      29.88S
TRACY          PTSUNNY   71  65  79 CALM      29.87S
SLAYTON        SUNNY     72  57  60 CALM      29.88F
$$
MNZ065>067-074>077-082>085-091>093-310000-
   South Central Minnesota

CITY           SKY/WX    TMP DP  RH WIND       PRES   REMARKS
MANKATO        SUNNY     73  63  68 W9        29.86S
NEW ULM        SUNNY     72  64  78 W6        29.85F
ST JAMES       SUNNY     77  63  61 CALM      29.87F
FAIRMONT       PTSUNNY   73  61  64 N5        29.86F
GLENCOE        MOSUNNY   74  62  65 SW6       29.85S
FARIBAULT      PTSUNNY   79  64  61 S3        29.85S
OWATONNA       CLOUDY    75  64  69 NW3       29.86S
WASECA         MOSUNNY   72  59  64 W6        29.88S
ALBERT LEA     MOSUNNY   75  64  69 W3        29.86F
$$
MNZ078>079-086>088-094>096-310000-
   Southeast Minnesota

CITY           SKY/WX    TMP DP  RH WIND       PRES   REMARKS
ROCHESTER      CLOUDY    75  64  68 N3        29.87S
RED WING       MOSUNNY   73  63  68 E5        29.85R
STANTON        SUNNY     76  63  64 E3        29.83S
DODGE CENTER   RAIN      70  66  88 CALM      29.87R
WINONA         SUNNY     73  64  73 NW7       29.85R
AUSTIN         SUNNY     75  64  69 NW7       29.86S
PRESTON        MOSUNNY   72  69  89 CALM      29.87R
$$
ABBREVIATIONS USED IN REMARKS
   TC - TEMPERATURES IN CELSIUS
  WCI - WIND CHILL INDEX
   HX - HEAT INDEX
  VSB - VISIBILITY
$$



USA.gov is the U.S. government's official web portal to all federal, state and local government web resources and services.